Regional Weather Roundup
Issued by NWS

Home | Current Version | Previous Version | Text Only | Print | Product List | Glossary Off
Versions: 1 2 3 4 5 6 7 8 9 10 11 12 13 14 15 16 17 18 19 20 21 22 23 24 25 26 27 28 29 30 31 32 33 34 35 36 37 38 39 40 41 42 43 44 45 46 47 48 49 50

000
ASUS45 KPSR 061010
RWRAZ

ARIZONA REGIONAL HOURLY WEATHER ROUNDUP
NATIONAL WEATHER SERVICE PHOENIX AZ
300 AM MST WED MAY 06 2015

NOTE: FAIR INDICATES FEW OR NO CLOUDS BELOW 12,000 FEET WITH NO
SIGNIFICANT WEATHER AND/OR OBSTRUCTIONS TO VISIBILITY.

AZZ001>003-036-061100-
NORTHWEST ARIZONA

CITY           SKY/WX    TMP DP  RH WIND       PRES   REMARKS
BULLHEAD CITY  PTCLDY    72  37  28 S7        29.74S
KINGMAN        PTCLDY    59  37  44 S8        29.85F
$$

AZZ004>008-015-016-018-061100-
NORTH CENTRAL ARIZONA

CITY           SKY/WX    TMP DP  RH WIND       PRES   REMARKS
GRAND CANYON   CLOUDY    43  40  89 SW6       30.00S
WILLIAMS       CLOUDY    46  37  71 SE3       30.06S
PRESCOTT       PTCLDY    50  39  66 S7        29.95F
FLAGSTAFF      MOCLDY    37  36  96 CALM      30.02S
PAYSON         MOCLDY    48  45  87 CALM      29.99S
PAGE           PTCLDY    57  47  69 CALM      29.87F
$$

AZZ009>014-017-061100-
NORTHEAST ARIZONA

CITY           SKY/WX    TMP DP  RH WIND       PRES   REMARKS
WINSLOW        CLOUDY    53  43  68 N7        29.94R
SAINT JOHNS    CLOUDY    52  41  66 W12G24    29.97R
WINDOW ROCK    MOCLDY    48  42  80 SW13      29.98S
SHOW LOW       PTCLDY    45  39  81 S12       30.02S
$$

AZZ023-061100-
GREATER PHOENIX AREA

CITY           SKY/WX    TMP DP  RH WIND       PRES   REMARKS
PHOENIX        MOCLDY    75  44  33 CALM      29.80S
LUKE AFB       MOCLDY    70  48  44 CALM      29.80S
DEER VALLEY    CLOUDY    70  43  37 NW3       29.82S
SCOTTSDALE     CLOUDY    72  45  37 CALM      29.84S
MESA-GATEWAY   MOCLDY    64  50  59 S6        29.85S
$$

AZZ027-028-061100-
SOUTHWEST MARICOPA COUNTY AND PINAL COUNTY

CITY           SKY/WX    TMP DP  RH WIND       PRES   REMARKS
CASA GRANDE    PTCLDY    66  43  42 CALM      29.82S
GILA BEND      FAIR      70  40  33 S3        29.79F
$$

AZZ503-504-507>509-061100-
SOUTHEAST ARIZONA

CITY           SKY/WX    TMP DP  RH WIND       PRES   REMARKS
TUCSON         PTCLDY    65  46  50 SE3       29.91F
DAVIS-MONTHAN  CLEAR     63  49  60 SE7       29.89F
NOGALES        CLEAR     53  40  61 S3        29.95F
SIERRA VISTA   CLEAR     57  42  57 S9        29.98F
DOUGLAS        CLEAR     51  32  48 E9        29.96F
SAFFORD        PTCLDY    56  44  64 S6        29.90S
$$

AZZ020-021-025-026-031-061100-
SOUTHWEST ARIZONA

CITY           SKY/WX    TMP DP  RH WIND       PRES   REMARKS
YUMA           PTCLDY    69  59  70 W5        29.77S
$$

CAZ031-033-041-043-047-048-061-061100-
SOUTHERN CALIFORNIA

CITY           SKY/WX    TMP DP  RH WIND       PRES   REMARKS
DOWNTOWN L.A.  CLOUDY    59  52  77 CALM      29.92F
L.A. AIRPORT   MOCLDY    58  51  78 E5        29.93F
SAN DIEGO      CLOUDY    62  47  57 S3        29.94F
BURBANK        CLOUDY    58  46  64 CALM      29.92F
ONTARIO        CLOUDY    56  47  71 W8        29.92F
RIVERSIDE      CLOUDY    56  47  71 W3        29.93F
PALM SPRINGS   MOCLDY    66  41  40 NW14      29.76F
EL CENTRO NAS  CLOUDY    66  43  43 W14       29.77F
IMPERIAL       MOCLDY    65  45  48 W9        29.75F
BLYTHE         PTCLDY    69  46  43 S9        29.75F
NEEDLES        PTCLDY    75  34  22 SW15      29.74S
$$

NVZ020-UTZ003-061100-
SOUTHERN NEVADA-UTAH

CITY           SKY/WX    TMP DP  RH WIND       PRES   REMARKS
LAS VEGAS      MOCLDY    70  37  29 S6        29.72S
SALT LAKE CITY CLOUDY    54  48  80 E7        29.82R
$$

NMZ009-TXZ055-061100-
NEW MEXICO-WEST TEXAS

CITY           SKY/WX    TMP DP  RH WIND       PRES   REMARKS
ALBUQUERQUE    MOCLDY    51  46  83 CALM      29.94S
EL PASO        CLEAR     63  39  41 W5        29.93R
$$


........................KEY........................
SKY/WX - SKY CONDITION/WEATHER
TMP    - TEMPERATURE IN FAHRENHEIT
DP     - DEW POINT IN FAHRENHEIT
RH     - RELATIVE HUMIDITY IN PERCENT
WIND   - DIRECTION AND SPEED IN MILES PER HOUR (MPH)
VRB    - VARIABLE WIND DIRECTION
PRES   - MEAN SEA LEVEL PRESSURE IN INCHES OF MERCURY
         F - FALLING PRESSURE   R - RISING PRESSURE
         S - STEADY PRESSURE
VSB    - VISIBILITY IN MILES
HX     - HEAT INDEX IN FAHRENHEIT
WCI    - WIND CHILL INDEX IN FAHRENHEIT
TC     - TEMPERATURE IN CELSIUS WHICH IS ALSO KNOWN AS
         TEMPERATURE IN CENTIGRADE
AFB    - AIR FORCE BASE
         LUKE AFB IS LUKE AIR FORCE BASE
         DAVIS-MONTHAN IS DAVIS-MONTHAN AIR FORCE BASE
NAS    - NAVAL AIR STATION
         EL CENTRO NAS IS EL CENTRO NAVAL AIR STATION
N/A    - NOT AVAILABLE



USA.gov is the U.S. government's official web portal to all federal, state and local government web resources and services.